Temp
61 61 61 61 61 61 61 61 61 61 61 62 62 62 61 61 61 75 84 86 88 77 75 97 95 97 99 96 100 100 85 83 87 88 90 95 92 96 98 93 94 95 94 94 96
61 61 61 61 61 60 60 60 61 61 61 61 61 61 61 61 76 88 81 77 78 75 93 95 92 95 93 94 97 91 85 86 97 96 95 95 94 94 90 90 90 91 96 95 95
60 60 61 60 60 60 60 60 60 61 61 61 61 61 61 64 82 92 78 76 75 79 98 101 100 96 90 95 94 92 85 94 96 97 99 95 93 97 90 88 92 89 90 92 93
60 60 60 60 60 60 60 60 60 61 60 60 60 60 61 78 79 93 77 76 74 93 97 96 95 90 89 88 95 87 93 94 97 97 96 93 96 91 93 92 100 97 94 93 92
59 60 60 59 59 59 59 60 60 60 60 60 60 60 68 83 90 93 75 77 91 94 95 93 91 91 86 91 93 89 91 95 97 95 95 97 92 93 93 98 98 99 94 93 94
59 59 59 59 59 59 59 59 58 58 59 59 60 60 77 82 99 100 97 94 98 97 97 97 93 96 92 91 90 93 92 94 96 95 95 91 92 93 96 98 96 96 93 94 94
59 58 58 59 59 59 59 58 57 58 59 60 61 70 85 88 100 100 100 98 100 98 93 98 98 91 93 88 95 93 86 91 91 94 92 94 86 88 97 98 93 93 93 94 94
58 58 58 58 58 58 58 58 57 60 61 61 61 79 86 98 103 98 100 97 100 99 97 99 98 95 92 95 89 86 86 80 90 92 91 90 79 91 97 96 91 91 93 93 94
58 57 58 58 58 58 58 57 59 61 61 62 71 84 85 84 92 99 100 94 95 96 96 97 95 91 91 84 81 83 77 80 85 93 90 87 82 93 99 94 91 91 92 92 92
58 57 57 57 57 57 57 57 61 61 67 81 88 82 91 88 95 96 100 97 92 92 89 89 89 84 86 83 73 77 78 81 81 89 88 86 84 93 93 92 91 92 91 91 90
58 57 57 57 57 56 62 76 77 80 86 85 85 85 89 95 97 93 98 94 93 89 81 87 81 78 83 85 85 82 80 80 85 89 83 83 84 88 91 90 90 91 91 89 87
57 57 57 57 56 57 68 90 83 86 81 90 88 89 90 93 86 92 98 86 85 80 86 81 77 85 86 84 81 81 78 78 84 86 84 84 83 89 92 89 91 91 91 90 86
56 56 56 56 56 67 90 85 93 90 80 86 89 88 88 92 86 89 93 90 84 81 82 78 83 85 81 80 77 79 77 79 79 84 85 82 80 83 90 92 92 92 93 93 90
56 56 56 55 64 94 88 91 95 90 76 78 84 88 91 91 83 95 97 91 86 80 83 81 87 81 80 78 80 74 85 81 79 77 71 83 69 80 85 87 89 91 91 93 93
56 56 55 53 86 90 88 95 94 87 61 80 84 97 93 86 88 88 97 91 81 82 82 79 79 79 78 80 83 78 83 80 80 77 76 77 72 78 86 83 87 90 93 93 94
55 55 55 74 88 91 95 93 87 71 59 75 84 82 84 86 86 88 87 92 92 83 84 83 88 84 83 84 83 85 79 80 79 77 66 74 74 76 82 84 87 91 95 94 93
55 54 59 83 86 95 94 87 71 66 77 73 76 81 80 79 81 83 80 79 77 70 71 79 81 86 86 80 85 82 75 65 64 65 64 78 74 76 86 90 91 92 93 95 93
54 52 66 88 95 93 88 78 62 72 73 79 78 79 74 78 79 80 79 77 79 77 74 71 67 79 84 81 78 78 75 67 56 59 65 77 68 78 89 93 95 95 96 96 93
52 84 88 93 92 90 81 68 71 73 77 74 77 73 73 76 76 77 76 75 76 77 69 69 70 82 82 85 83 77 73 81 70 73 67 73 78 85 89 89 91 93 94 93 94
74 85 89 91 91 85 76 65 72 77 76 76 70 73 69 72 72 74 74 74 73 78 81 74 65 79 80 84 85 80 84 69 72 56 55 68 69 72 81 83 88 89 91 94 95
75 80 87 92 90 80 70 74 74 78 77 72 71 70 72 70 72 72 73 73 74 75 80 77 70 71 78 76 74 75 72 74 69 70 61 59 66 80 78 85 86 89 93 84 84
79 74 89 91 75 80 76 74 57 75 77 75 75 73 70 71 69 70 69 71 74 76 71 75 68 64 70 81 82 78 74 74 64 61 66 64 67 88 86 89 89 90 92 75 62
74 78 90 86 69 73 72 72 74 72 73 72 71 73 73 69 63 70 71 75 73 73 70 73 66 60 64 73 79 72 76 74 71 68 61 60 66 86 79 74 87 83 88 89 68
74 71 79 84 79 70 69 70 68 72 71 72 72 72 70 68 72 67 68 73 72 73 63 66 64 61 60 66 71 68 71 73 70 62 64 67 70 77 81 78 85 81 85 88 89
77 68 67 70 70 69 68 69 67 65 71 72 69 69 68 63 67 67 70 72 72 64 68 68 59 66 68 70 70 69 69 70 68 69 62 68 70 75 79 81 83 85 83 82 84
66 66 74 70 65 65 58 66 66 68 65 66 64 68 67 62 66 64 68 67 65 72 67 67 57 63 61 68 68 65 69 70 70 71 70 71 70 81 83 83 80 78 79 79 81
73 73 66 60 67 65 68 66 64 66 68 68 66 64 63 65 66 69 69 68 67 64 63 62 60 58 54 65 66 59 66 69 71 74 72 66 74 81 78 77 75 75 76 75 77
MSLP
1018.40 1018.03 1017.87 1017.64 1017.29 1016.77 1016.28 1015.86 1015.41 1015.06 1014.99 1014.57 1014.33 1013.98 1013.82 1013.36 1012.81 1012.29 1009.71 1008.48 1008.16 1008.56 1008.81 1007.58 1007.65 1006.94 1006.30 1005.15 1004.41 1003.71 1002.54 1000.38 999.06 998.99 998.68 1000.54 1001.15 1002.24 1002.98 1003.35 1004.08 1004.57 1004.98 1006.84 1008.40
1018.55 1018.05 1017.79 1017.45 1017.04 1016.53 1016.14 1015.63 1015.28 1015.03 1014.71 1014.35 1014.19 1013.72 1013.43 1013.20 1011.56 1009.13 1008.31 1008.31 1008.49 1008.64 1007.90 1006.55 1006.20 1005.96 1005.28 1004.59 1003.86 1003.44 1002.00 1000.20 998.96 998.85 999.01 999.94 1001.01 1001.93 1003.17 1003.42 1003.99 1005.20 1005.90 1007.48 1008.30
1018.58 1018.04 1017.52 1017.18 1016.84 1016.36 1015.78 1015.25 1014.93 1014.77 1014.35 1014.08 1013.82 1013.54 1013.27 1012.92 1009.91 1007.01 1008.04 1008.37 1008.55 1008.59 1007.07 1005.82 1005.03 1004.99 1004.52 1003.85 1003.24 1002.78 1001.71 1000.11 999.55 999.85 999.76 1000.03 1001.28 1001.62 1002.74 1002.59 1003.32 1004.78 1006.21 1007.49 1008.10
1018.38 1017.83 1017.33 1016.98 1016.52 1015.94 1015.28 1014.98 1014.67 1014.37 1013.98 1013.83 1013.49 1013.37 1013.15 1011.69 1007.47 1007.27 1008.06 1008.24 1008.61 1007.99 1007.17 1005.90 1005.16 1004.37 1003.67 1002.95 1002.66 1002.39 1001.68 1001.02 1000.00 1000.05 1000.54 1000.72 1001.10 1001.82 1002.27 1001.67 1001.80 1004.32 1006.14 1007.17 1007.73
1018.42 1017.73 1017.18 1016.61 1016.11 1015.65 1015.21 1014.67 1014.33 1013.90 1013.71 1013.56 1013.28 1013.18 1012.88 1009.35 1006.24 1007.09 1007.83 1008.17 1008.16 1007.67 1006.39 1005.56 1004.86 1004.05 1003.20 1002.56 1002.34 1001.95 1001.57 1001.01 1000.70 1000.79 1001.23 1001.09 1001.33 1001.52 1002.00 1002.24 1003.24 1004.01 1005.99 1006.81 1007.32
1018.03 1017.41 1016.81 1016.40 1015.85 1015.30 1014.87 1014.31 1013.81 1013.59 1013.39 1013.15 1013.04 1013.09 1011.32 1007.31 1006.02 1006.29 1006.77 1007.31 1006.48 1006.28 1005.46 1004.97 1004.37 1003.95 1003.13 1002.42 1001.91 1001.78 1001.87 1001.01 1000.90 1000.81 1001.31 1001.51 1001.50 1001.68 1001.64 1002.38 1003.31 1003.97 1005.57 1006.37 1006.90
1017.73 1017.15 1016.66 1015.87 1015.54 1015.07 1014.38 1013.86 1013.51 1013.32 1012.91 1012.62 1012.73 1012.17 1008.91 1006.33 1006.04 1006.27 1006.40 1006.01 1006.02 1005.72 1005.24 1004.97 1004.46 1004.32 1003.68 1002.61 1002.32 1001.94 1001.79 1001.11 1001.10 1000.93 1001.04 1001.54 1001.40 1001.11 1001.34 1001.82 1003.33 1004.05 1005.15 1005.78 1006.63
1017.45 1016.89 1016.34 1015.74 1015.16 1014.65 1013.95 1013.50 1013.26 1012.80 1012.38 1012.28 1012.40 1011.06 1006.70 1006.31 1006.08 1006.15 1006.00 1005.92 1006.02 1006.04 1005.71 1005.15 1005.33 1004.38 1003.56 1002.57 1002.52 1002.16 1001.74 1000.59 1000.17 1000.59 1000.96 1001.63 1000.48 1000.63 1001.27 1001.76 1002.85 1004.01 1004.73 1005.38 1006.29
1017.44 1016.77 1016.15 1015.46 1014.76 1014.19 1013.75 1013.31 1012.86 1012.55 1012.38 1012.15 1011.60 1009.17 1006.05 1007.15 1006.19 1005.79 1005.75 1005.50 1005.77 1005.88 1005.85 1005.66 1005.22 1004.08 1003.40 1002.82 1001.97 1001.50 1000.44 999.97 999.35 999.74 1000.76 1001.18 1000.44 999.83 999.90 1001.35 1002.57 1003.49 1004.28 1005.05 1005.93
1017.19 1016.50 1015.63 1014.83 1014.28 1013.88 1013.49 1013.26 1012.85 1012.64 1011.88 1010.62 1009.03 1007.74 1005.90 1005.10 1005.38 1005.57 1005.64 1005.57 1005.52 1005.49 1005.52 1005.34 1004.44 1003.48 1002.73 1001.78 1000.35 999.85 999.89 999.63 998.98 999.34 1000.43 1000.19 1000.35 999.71 1000.36 1001.24 1002.09 1002.73 1003.90 1004.81 1005.88
1016.81 1015.92 1015.16 1014.47 1013.90 1013.56 1013.15 1012.46 1012.16 1010.66 1008.66 1007.21 1006.66 1005.73 1005.14 1005.12 1005.60 1005.44 1005.43 1005.26 1004.93 1004.99 1004.13 1004.30 1003.33 1002.11 1001.24 1001.24 1000.95 1000.98 1000.22 999.41 999.13 999.67 1000.29 1000.27 999.93 1000.04 1000.24 1001.42 1001.66 1002.18 1003.32 1004.53 1006.28
1016.44 1015.70 1014.98 1014.23 1013.45 1012.94 1012.55 1009.24 1009.68 1009.20 1006.96 1006.22 1006.11 1005.44 1005.66 1005.29 1004.64 1004.67 1005.14 1004.94 1004.52 1003.71 1003.38 1003.45 1002.48 1001.42 1001.93 1002.19 1002.23 1001.67 1001.01 1000.41 999.87 1000.36 1000.79 1000.00 999.76 999.49 999.59 1000.66 1001.33 1001.67 1002.42 1003.72 1005.89
1016.36 1015.64 1014.83 1013.96 1013.12 1012.17 1010.18 1009.68 1009.11 1008.83 1007.05 1005.23 1005.08 1004.67 1004.87 1005.16 1004.08 1003.97 1004.68 1004.21 1003.68 1003.23 1002.79 1002.33 1001.57 1002.43 1002.78 1002.38 1002.32 1001.67 1001.10 1000.50 1000.24 1000.14 1000.78 1000.24 999.43 999.30 999.41 999.82 1000.68 1001.33 1001.85 1002.75 1004.10
1016.29 1015.37 1014.56 1013.69 1013.43 1010.18 1009.27 1009.32 1008.78 1008.81 1006.01 1004.59 1003.98 1004.15 1004.47 1004.24 1003.98 1003.69 1004.13 1003.59 1003.08 1002.62 1002.35 1002.17 1001.86 1002.49 1002.47 1002.04 1001.98 1001.15 1000.77 1001.21 1000.97 1000.67 1000.00 999.93 998.94 998.49 998.79 999.03 999.62 1000.33 1001.10 1001.80 1002.91
1015.95 1015.13 1014.19 1013.84 1011.11 1009.07 1009.47 1008.93 1008.73 1008.53 1004.96 1004.53 1003.69 1004.03 1003.75 1003.60 1003.31 1003.73 1004.04 1003.63 1002.91 1002.38 1002.75 1001.48 1002.26 1002.30 1001.88 1001.55 1001.55 1001.10 1001.53 1001.59 1001.22 1000.81 1000.42 999.50 999.21 997.86 997.25 997.75 998.28 998.91 999.58 1000.88 1001.96
1015.58 1014.66 1013.76 1012.05 1010.48 1009.42 1009.00 1008.97 1008.81 1006.95 1004.29 1004.03 1003.73 1003.29 1002.96 1002.87 1003.06 1003.51 1003.89 1004.08 1003.02 1002.69 1002.63 1001.98 1002.21 1002.37 1001.86 1001.81 1002.26 1001.87 1002.11 1001.80 1001.43 1000.73 999.78 999.33 998.67 997.27 996.65 996.74 997.32 998.00 998.13 999.28 1001.01
1014.97 1014.26 1013.81 1011.47 1009.37 1009.29 1008.97 1008.30 1006.64 1004.59 1004.82 1004.16 1003.59 1003.50 1003.05 1003.04 1003.03 1003.16 1003.57 1003.75 1002.97 1002.82 1002.27 1001.81 1001.71 1001.77 1002.12 1001.75 1001.60 1001.87 1001.83 1000.86 1000.09 999.33 998.36 997.89 997.65 997.06 996.34 996.44 996.85 997.03 996.98 996.88 999.20
1014.52 1014.08 1012.33 1010.76 1009.64 1009.38 1008.65 1007.36 1005.45 1004.49 1004.23 1004.81 1004.35 1003.92 1003.52 1003.71 1003.31 1003.19 1003.19 1003.07 1003.99 1003.70 1002.52 1001.19 1000.69 1001.38 1001.76 1001.63 1000.92 1000.87 1001.24 1000.47 999.35 998.45 997.78 997.02 997.09 996.45 996.63 996.85 996.71 996.89 997.23 997.62 998.82
1013.53 1011.86 1010.23 1009.97 1009.92 1009.55 1008.21 1006.10 1004.48 1004.77 1005.06 1004.78 1004.42 1003.83 1003.75 1004.14 1004.28 1003.73 1003.54 1003.67 1004.78 1004.90 1004.02 1002.46 1001.97 1002.17 1002.23 1002.17 1001.83 1000.99 1000.72 1000.82 1000.57 999.86 999.03 997.65 996.90 996.44 996.41 996.67 996.89 997.02 997.25 997.76 998.81
1013.59 1010.59 1009.36 1009.91 1009.83 1009.23 1007.63 1005.95 1005.70 1006.22 1006.37 1005.86 1004.62 1004.63 1003.76 1004.22 1004.57 1004.16 1004.19 1005.73 1005.79 1005.83 1005.44 1004.24 1003.61 1002.38 1002.39 1002.68 1001.96 1001.64 1001.21 1001.27 1000.87 1000.60 999.68 998.45 997.62 996.35 996.24 996.39 996.57 996.67 997.11 997.17 997.89
1013.34 1009.87 1009.56 1009.49 1009.27 1008.31 1006.53 1005.69 1006.41 1007.18 1007.17 1006.50 1005.69 1005.47 1005.08 1005.08 1005.18 1004.73 1004.69 1006.50 1007.11 1006.68 1006.31 1005.61 1005.36 1003.75 1003.02 1002.05 1001.43 1001.94 1001.82 1001.70 1002.42 1001.24 1000.06 999.12 997.90 997.59 998.66 997.93 997.38 997.40 997.54 998.19 997.78
1012.36 1009.37 1009.42 1009.24 1008.35 1007.01 1006.23 1006.94 1007.85 1007.44 1007.80 1007.26 1007.18 1006.61 1006.50 1006.42 1006.04 1005.75 1005.80 1006.77 1008.35 1007.86 1006.97 1006.75 1006.75 1005.07 1003.64 1002.66 1002.86 1003.29 1002.95 1002.52 1002.45 1002.05 1001.17 1000.96 998.58 997.53 998.50 998.19 998.02 998.30 998.42 999.51 1000.84
1012.67 1010.04 1009.24 1009.23 1007.56 1006.78 1007.78 1008.01 1008.17 1008.17 1007.97 1007.90 1007.63 1007.73 1007.75 1007.43 1007.47 1007.00 1007.02 1008.14 1009.12 1008.76 1008.55 1008.26 1007.26 1006.02 1004.36 1003.54 1003.05 1003.33 1003.01 1003.53 1003.82 1003.87 1002.78 1001.62 999.81 998.54 999.77 1000.17 999.13 999.66 1000.11 1000.15 1001.97
1013.40 1010.05 1009.10 1009.03 1009.13 1008.73 1008.27 1008.07 1008.45 1009.41 1008.90 1008.97 1008.41 1008.78 1008.45 1008.15 1008.04 1007.80 1007.90 1008.52 1009.65 1009.58 1010.46 1010.29 1008.95 1007.52 1005.62 1003.82 1004.10 1003.58 1003.56 1003.88 1004.04 1003.88 1002.95 1001.83 1000.47 999.97 999.94 1000.39 999.24 1000.12 1000.92 1001.60 1000.89
1013.63 1011.95 1012.35 1009.42 1009.73 1009.96 1009.84 1009.25 1008.86 1009.11 1009.83 1009.78 1009.24 1009.32 1009.06 1008.86 1008.35 1008.25 1008.57 1008.64 1009.46 1010.35 1010.52 1010.34 1009.41 1008.18 1006.88 1005.97 1005.31 1004.92 1004.54 1004.33 1004.00 1003.73 1003.28 1002.51 1001.66 1001.34 1001.15 1000.91 1000.96 1001.17 1002.20 1002.14 1001.98
1015.05 1013.85 1012.79 1011.68 1011.77 1011.18 1010.72 1009.74 1009.67 1009.45 1010.49 1009.89 1010.28 1009.75 1010.48 1010.40 1009.90 1009.28 1009.35 1009.74 1010.01 1009.68 1010.36 1010.44 1010.10 1009.16 1007.96 1007.14 1006.24 1005.21 1004.71 1004.31 1003.81 1003.48 1003.11 1002.78 1002.06 1002.13 1001.99 1002.16 1002.70 1003.49 1003.86 1003.58 1002.90
1016.17 1015.51 1014.73 1012.55 1011.57 1011.29 1010.15 1010.39 1010.64 1010.98 1011.20 1011.46 1011.38 1011.41 1011.47 1011.67 1012.05 1011.62 1011.90 1011.50 1011.44 1011.32 1010.92 1010.99 1010.54 1009.73 1008.03 1007.25 1006.06 1004.52 1003.98 1003.53 1003.15 1002.91 1002.70 1002.31 1002.16 1002.30 1002.41 1003.26 1004.41 1005.00 1004.94 1005.06 1004.67
Wind_Speed
14 14 14 14 14 14 14 15 14 14 15 14 14 12 13 12 14 12 10 1 4 1 4 15 17 18 16 17 18 10 14 14 14 12 4 12 9 7 3 5 5 7 2 22 19
15 14 14 15 15 14 14 14 14 15 14 14 15 13 12 12 13 13 6 6 2 7 13 15 17 17 15 17 15 15 13 19 13 2 10 14 7 13 7 9 9 10 19 20 20
15 15 15 15 16 15 15 15 15 16 14 14 14 13 11 13 12 10 5 4 5 10 18 13 11 14 18 16 18 18 18 17 8 6 10 6 6 11 10 14 13 13 19 19 19
17 17 17 17 16 17 17 16 17 16 15 15 14 13 10 12 2 9 3 8 9 13 15 12 11 14 17 20 18 19 18 21 17 3 10 8 3 8 10 5 16 16 19 19 19
17 18 18 18 17 17 17 17 17 17 16 15 12 10 11 10 2 10 8 10 12 13 14 14 14 13 16 17 15 21 19 16 18 5 10 12 7 10 13 5 4 20 19 19 18
17 19 20 19 18 18 17 16 15 16 16 13 10 6 10 11 4 6 8 12 9 12 11 13 10 12 13 16 16 12 19 19 14 13 10 11 12 9 11 15 9 18 18 18 18
18 19 20 20 20 18 17 14 14 15 15 12 10 8 10 4 2 8 12 8 6 6 7 9 5 5 12 10 13 16 14 16 12 13 14 10 15 12 13 18 13 15 17 18 18
19 19 20 21 20 19 17 14 13 11 5 8 10 12 2 4 4 8 6 5 5 3 7 4 8 13 11 4 4 14 15 16 19 16 8 10 17 18 16 13 16 17 16 15 18
20 20 20 21 21 18 16 14 8 6 5 8 9 9 7 5 11 11 8 7 5 3 4 5 10 14 11 12 14 13 15 19 20 17 13 15 18 19 22 16 16 16 15 16 16
21 20 21 21 21 17 14 8 5 7 10 9 7 8 8 4 6 5 9 4 7 7 9 11 9 11 13 13 13 9 16 15 8 15 11 17 16 15 4 11 15 16 16 15 15
22 22 22 22 20 14 11 7 8 8 14 7 5 4 3 4 6 10 12 10 7 11 12 13 11 12 16 11 11 11 14 12 9 2 4 14 15 18 16 12 15 17 16 16 14
23 24 23 22 21 15 9 3 6 7 4 4 1 4 1 3 7 10 13 12 10 13 10 7 13 4 6 5 8 12 13 13 9 4 12 15 16 16 15 14 14 15 16 17 18
23 23 22 22 19 9 6 6 7 4 9 8 4 4 1 10 7 14 15 14 9 12 9 15 6 9 6 10 11 13 14 12 13 8 11 15 13 14 13 11 14 15 16 18 20
23 23 21 21 7 2 2 5 7 2 8 7 6 6 10 4 7 0 13 11 8 12 11 9 2 5 11 11 10 13 14 10 12 13 13 20 13 18 20 18 17 17 18 17 18
23 23 20 9 10 2 7 8 6 5 6 4 6 4 5 7 5 11 10 10 15 7 7 6 6 10 12 11 8 7 3 7 10 12 15 16 10 15 9 13 13 17 20 19 18
24 22 18 6 6 6 7 4 5 9 3 7 2 3 10 3 6 6 9 10 10 9 10 13 5 6 12 1 7 13 6 13 13 13 14 18 18 14 13 16 13 14 17 18 18
25 20 11 8 6 9 8 6 8 7 3 6 3 4 1 1 5 6 11 13 9 10 13 16 14 14 7 11 14 13 11 11 13 13 13 17 18 15 5 5 10 10 13 20 19
26 18 9 5 7 7 7 9 7 7 0 3 4 4 6 5 3 6 9 9 2 11 13 11 7 4 5 11 13 12 12 12 15 12 12 8 7 11 11 10 10 7 11 9 16
28 6 6 3 6 6 8 9 5 3 4 3 7 10 9 5 6 4 6 10 7 6 10 8 6 5 2 8 10 13 11 13 13 15 13 12 10 6 12 11 12 13 14 13 13
8 6 3 6 4 7 8 9 2 4 4 5 11 3 5 5 9 7 11 4 1 4 7 5 12 2 3 7 14 12 12 8 10 14 16 15 11 10 9 8 5 12 12 12 18
7 6 7 6 5 8 10 4 3 5 4 4 3 4 3 3 7 4 1 9 2 4 8 7 8 15 7 12 5 6 13 7 10 12 12 12 8 15 5 12 9 12 16 13 14
6 5 5 5 8 4 5 1 4 5 4 5 6 6 5 0 6 5 4 4 4 7 9 7 7 11 16 18 6 9 16 17 10 14 8 14 14 11 5 12 8 11 11 12 20
7 6 4 5 7 7 4 4 2 5 4 3 5 4 2 5 4 6 4 10 4 5 9 8 6 9 15 17 13 10 13 4 9 9 15 16 12 8 10 21 25 21 22 17 28
6 4 5 2 3 9 2 9 8 1 3 5 6 2 6 9 7 6 6 7 1 3 4 4 9 12 14 18 15 10 5 10 11 10 13 15 21 17 18 8 21 14 13 20 22
2 4 5 2 5 6 4 5 9 7 8 5 6 9 8 9 10 11 10 7 6 8 8 5 13 15 16 18 15 17 17 17 18 17 18 18 20 17 18 20 21 19 20 21 22
7 6 0 5 5 7 5 7 10 4 4 6 8 5 5 9 11 14 9 2 9 5 6 3 9 11 16 16 18 21 21 21 22 21 21 19 20 17 16 11 17 20 20 18 21
3 2 5 1 6 7 6 5 3 3 4 8 6 6 9 4 10 9 9 11 12 9 9 10 10 11 15 15 17 18 16 20 19 19 17 17 16 13 8 10 13 17 13 17 18
Wind_Direction
347 345 338 331 328 327 324 320 317 315 307 310 309 307 307 310 295 223 248 339 195 225 247 196 208 221 231 239 234 247 264 256 250 238 147 121 179 171 175 121 192 81 110 135 148
341 340 333 331 328 324 315 314 311 304 300 305 302 305 309 314 276 249 112 114 75 224 225 184 200 211 220 225 223 240 239 252 279 237 260 123 234 145 177 194 158 131 109 135 152
337 335 335 331 325 318 317 315 306 298 299 298 297 299 300 293 266 97 63 135 190 213 250 224 217 207 226 222 218 225 251 257 279 285 285 95 189 137 213 178 168 161 138 152 160
335 335 333 328 324 321 319 310 301 296 298 291 290 291 293 256 334 92 337 204 196 220 232 236 236 213 229 222 228 235 242 263 286 132 261 251 239 176 216 302 146 150 148 160 166
330 332 331 327 325 320 311 305 300 298 291 283 278 280 267 222 88 117 138 137 183 210 223 216 224 229 233 235 223 230 250 232 256 286 258 253 226 264 188 160 246 143 158 169 174
331 331 331 325 323 319 309 304 300 293 279 268 258 258 245 246 73 136 139 166 195 220 220 220 225 231 263 264 241 224 239 258 257 231 231 252 232 227 235 143 203 153 172 175 178
333 330 326 328 323 317 313 308 297 285 268 251 226 230 259 29 92 145 165 191 192 249 245 240 289 247 220 257 255 252 268 233 243 238 245 228 248 216 241 168 177 169 182 175 184
334 329 327 324 321 319 314 306 295 279 254 201 199 238 9 115 158 181 178 167 187 227 286 243 236 246 265 267 244 235 235 244 216 218 208 218 241 205 222 206 179 186 186 185 186
331 326 324 322 320 319 309 303 279 228 213 178 213 234 125 138 202 195 214 178 185 200 218 215 218 233 197 237 223 208 245 217 263 169 229 204 250 251 197 180 203 188 201 192 182
328 327 326 321 320 314 302 280 179 208 210 217 276 236 171 153 113 165 184 207 190 177 170 201 219 223 226 218 232 241 206 252 230 180 203 233 233 254 152 181 215 192 202 189 187
329 330 327 320 314 305 288 189 204 187 217 19 29 305 142 142 175 202 179 208 186 204 214 215 231 219 223 215 310 309 311 289 195 28 244 231 247 240 169 215 214 205 198 189 181
332 328 325 318 310 304 269 22 43 349 253 135 106 216 236 284 196 166 183 208 204 229 212 196 236 267 347 309 257 255 257 255 272 138 252 243 232 226 215 197 220 221 205 197 188
329 326 323 317 318 288 48 41 323 307 256 142 99 33 94 194 228 164 200 222 211 240 199 268 31 64 253 226 244 239 257 253 255 166 242 266 261 237 225 196 209 227 226 211 193
326 325 323 318 296 29 115 329 313 327 256 129 167 107 153 198 213 158 196 227 231 260 228 261 45 197 241 254 229 260 209 241 274 254 252 203 251 215 220 222 214 221 224 227 201
326 324 318 315 320 305 346 317 333 235 237 92 92 103 148 240 113 174 221 237 265 218 264 186 188 217 231 236 204 280 57 256 262 250 251 251 241 282 298 203 218 218 219 217 215
327 327 324 211 240 15 323 327 242 231 125 134 196 265 184 187 181 107 189 246 291 274 230 289 157 284 277 73 235 290 246 248 242 249 240 239 263 261 242 219 219 227 234 199 204
328 325 299 295 350 340 322 247 240 269 163 147 154 237 347 250 149 210 174 206 244 219 230 214 231 210 229 254 222 223 248 255 223 219 233 235 221 232 299 254 209 246 252 192 174
321 318 200 291 314 322 284 254 264 56 296 117 234 212 245 289 148 180 203 184 193 318 290 284 198 198 168 257 315 195 239 260 292 290 318 112 222 238 250 257 299 300 297 315 165
310 197 236 39 322 293 270 244 335 59 43 248 181 232 172 195 279 259 1 18 45 344 316 322 170 148 219 292 285 279 227 261 282 276 273 281 261 240 215 221 231 246 239 218 212
312 273 102 317 302 271 253 264 47 40 297 244 260 281 231 144 244 222 161 67 267 344 317 7 298 296 346 290 250 260 309 279 227 256 268 274 258 283 148 176 310 343 313 221 211
267 265 81 318 257 244 251 61 140 101 288 279 302 241 268 221 282 250 325 103 317 315 302 318 272 285 206 252 291 236 243 247 342 297 297 290 267 58 187 303 5 330 326 20 335
283 268 52 313 247 238 272 118 1 157 217 228 296 306 275 120 273 258 270 67 4 310 290 59 307 287 287 310 322 284 287 296 295 283 339 323 293 322 291 286 289 298 354 89 92
302 298 95 279 264 212 92 175 238 197 197 216 233 270 161 257 265 254 245 100 16 325 351 1 245 266 253 237 222 244 250 307 301 301 283 290 269 343 47 349 306 27 357 344 195
283 268 153 230 329 308 193 216 181 255 235 266 298 279 243 245 223 269 226 144 289 308 42 312 266 265 280 309 329 293 268 271 286 277 280 279 298 311 310 285 308 10 326 345 330
276 72 359 325 96 323 284 330 253 180 251 239 212 254 256 254 251 231 239 238 212 153 229 253 269 266 264 270 288 286 280 279 271 264 265 282 288 300 311 318 323 346 353 342 320
317 336 293 284 288 267 184 243 259 187 261 220 254 294 265 263 275 292 347 271 268 183 237 222 272 282 278 278 273 272 267 265 263 266 271 274 274 283 285 344 350 355 328 342 333
21 209 280 142 222 254 252 238 256 333 171 287 320 295 242 305 346 346 324 306 291 288 274 265 269 265 266 270 271 259 256 255 260 264 264 264 278 292 317 348 344 325 359 348 336